Simultaneous Nadir Overpasses (SNOs) Predictions

Prediction of SNOs between FY3D and NOAA-19 Satellite Orbit:

Table of predicted SNOs for the next 14.0 days since TLE Epoch: 12/11/2021
Index Date (FY3D) Time (FY3D) Lat,Lon (FY3D) SZA (FY3D ) Date (NOAA-19) Time (NOAA-19) Lat,Lon (NOAA-19) SZA (NOAA-19 ) Distance(km) Time Diff (sec)
1 12/18/2021 03:24:17 -77.63, -69.75 78.50 12/18/2021 03:23:12 -77.64, -73.39 78.23 86.88 65
2 12/18/2021 04:15:12 78.00, 95.69 101.98 12/18/2021 04:13:58 77.97, 95.72 101.97 3.12 74
3 12/18/2021 05:05:57 -77.97, -96.86 78.06 12/18/2021 05:05:03 -77.99, -96.95 78.03 2.73 54
4 12/18/2021 05:56:43 77.98, 70.42 101.95 12/18/2021 05:55:58 77.98, 70.26 101.97 3.66 45
5 12/18/2021 06:47:29 -77.99,-122.34 78.03 12/18/2021 06:47:03 -77.99,-122.41 78.02 1.64 26
6 12/18/2021 07:38:15 78.00, 44.93 101.98 12/18/2021 07:37:57 78.02, 45.02 102.00 3.20 18
7 12/18/2021 08:29:01 -78.01,-147.83 78.01 12/18/2021 08:29:03 -78.00,-147.88 78.01 1.79 2
8 12/18/2021 09:19:47 78.02, 19.45 102.01 12/18/2021 09:19:57 78.03, 19.56 102.01 2.69 10
9 12/18/2021 10:10:33 -78.03,-173.31 77.98 12/18/2021 10:11:03 -78.01,-173.34 78.01 3.00 30
10 12/18/2021 11:01:19 78.04, -6.04 102.04 12/18/2021 11:01:57 78.03, -5.91 102.01 3.10 38
11 12/18/2021 11:52:03 -78.01, 161.41 78.00 12/18/2021 11:53:01 -78.05, 161.41 77.98 4.15 58
12 12/18/2021 12:42:49 78.02, -31.31 102.01 12/18/2021 12:43:56 78.04, -31.37 102.02 2.69 67



Historial Predications of SNOs between FY3D and NOAA-19
